User: anonymous   Login
Location: Theydon Bois
(51.6750°N, 0.1050°E)
Time: 10:06:07
(UTC+00:00)
Language:

Cosmos 1805 - Orbit

View from above orbital plane
View from above orbital plane
View from above satellite
View from above satellite

Ground track
Ground track

The orbit data is extracted from the following two-line orbital elements,

1 17191U 86097A   17351.17241436  .00000382  00000-0  20486-4 0  9991
2 17191  82.4731 209.2287 0005355 146.4904 213.6667 15.11984809691296
Epoch (UTC): 17 December 2017 04:08:16
Eccentricity: 0.0005355
inclination: 82.4731°
perigee height: 526 km
apogee height: 534 km
right ascension of ascending node: 209.2287°
argument of perigee: 146.4904°
revolutions per day: 15.11984809
mean anomaly at epoch: 213.6667°
orbit number at epoch: 69129

The dashed part of the orbit path shows where the satellite is in the earth's shadow,  

DLR